Regional Weather Roundup
Issued by NWS Newport/Morehead, NC

Current Version | Previous Version | Graphics & Text | Print | Product List | Glossary Off
Versions: 1 2 3 4 5 6 7 8 9 10 11 12 13 14 15 16 17 18 19 20 21 22 23 24 25 26 27 28 29 30 31 32 33 34 35 36 37 38 39 40 41 42 43 44 45 46 47 48 49 50
000 ASUS42 KMHX 150925 RWRMHX WEATHER ROUNDUP FOR EASTERN NORTH CAROLINA NATIONAL WEATHER SERVICE NEWPORT/MOREHEAD CITY NC 400 AM EST FRI DEC 15 2017 NOTE: "FAIR" INDICATES FEW OR NO CLOUDS BELOW 12,000 FEET WITH NO SIGNIFICANT WEATHER AND/OR OBSTRUCTIONS TO VISIBILITY NCZ015>017-031-032-045>047-102-103-151000- NORTH COAST CITY SKY/WX TMP DP RH WIND PRES REMARKS EDENTON CLEAR 36 31 83 N6 30.04S ELIZABETH CITY CLEAR 36 34 92 N7 30.04F KITTY HAWK SUNNY 47 38 71 E5 30.01S MANTEO CLEAR 45 38 78 E7 30.02S $$ NCZ045>047-081-094-103-104-151000- CENTRAL COAST CITY SKY/WX TMP DP RH WIND PRES REMARKS FRISCO CLOUDY 48 42 80 NE6 29.99F $$ NCZ095-097-098-100-101-151000- SOUTHERN COAST CITY SKY/WX TMP DP RH WIND PRES REMARKS BEAUFORT CLOUDY 44 42 93 NE5 29.99F CEDAR ISLAND NOT AVBL JACKSONVILLE CLOUDY 40 38 93 N3 29.99F PINEY ISLAND N/A N/A N/A N/A NE7 29.99S WILMINGTON PTCLDY 38 37 97 CALM 29.99S $$ NCZ011>013-027>030-043-044-078>080-089-090>093-098-151000- COASTAL PLAIN CITY SKY/WX TMP DP RH WIND PRES REMARKS AHOSKIE CLEAR 30 23 73 CALM 30.06R CLINTON CLOUDY 39 36 87 NE3 30.00S ELIZABETHTOWN NOT AVBL GOLDSBORO CLOUDY 36 30 79 NE5 30.00S GREENVILLE CLOUDY 34 30 86 N3 30.03F HAVELOCK CLOUDY 42 32 67 NE5 30.00F KENANSVILLE CLOUDY 37 34 87 CALM 30.00S KINSTON NOT AVBL NEW BERN CLOUDY 37 37 100 CALM 30.01F RICHLANDS CLOUDY 36 35 96 NE6 30.00F ROCKY MOUNT PTCLDY 34 27 75 NE6 30.03S WASHINGTON CLOUDY 36 31 85 NE5 30.01F WHITEVILLE MOCLDY 40 38 89 CALM 29.98S $$ AMZ130-135-150-152-154-156-158-170-250-252-270-ANZ085-086-088-633-658-670-151000- MARINE OBSERVATIONS STATION/POSITION TIME TEMP WIND PRES WAVE SWELL AIR SEA DIR/SP/G HT/PER HT/PER (UTC) (F) (DEG/KT/KT) (MB) (FT/S) (FT/S) CHESAPEAKE LIGHT NOT AVBL 64 E VA BEACH 0850 47 59 60/ 12/ 14 1017.6 4/ 7 3/ 7 DUCK 0900 48 52 70/ 12/ 15 1016.4 2 E DUCK 0900 55 N/A 4/ 5 OREGON INLET 0900 50/ 7/ 10 1016.0 13E OREGON INLT 0848 64 N/A 4/ 6 3/ 6 HATTERAS CG 0900 49 53 40/ 5/ 7 1015.3 DIAMOND BUOY 0910 60 74 80/ 4/ 8 1015.2 CAPE LOOKOUT 0900 10/ 6/ 7 1015.7 BEAUFORT LAB 0900 44 50 20/ 6/ 7 1015.4 30 SE NEW RVR IN 0808 57 64 80/ 6/ 10 1015.3 30 SE NEW RVR IN 0900 64 N/A 4/ 7 27 SE WRIGHTSVLE 0808 57 64 290/ 6/ 8 1015.5 5 SE WRIGHTSVLE 0908 52 56 30/ 2/ 4 1015.0 225 S CAPE HAT 0850 71 74 260/ 16/ 19 1015.6 7/ 8 3/11 41 SE CHARLESTON 0910 63 73 270/ 14/ 16 1015.2 $$

USA.gov is the U.S. government's official web portal to all federal, state and local government web resources and services.